Location: Ferchesar
(52.6477°N, 12.4298°E)
Time: 09:52:42
(UTC+01:00)

S-56A Canister/Altair - Pass Details

Date: 12 December 2021
Orbit: 633 x 2499 km, 38.9° (Epoch: 19 January)

Event Time Altitude Azimuth Distance (km) Brightness Sun altitude
Rises 19:12:02 0° 193° (SSW) 6,144 12.3 -28.4°
Reaches altitude 10° 19:18:16 10° 176° (S) 5,004 11.6 -29.3°
Enters shadow 19:25:02 17° 147° (SSE) 4,190 10.9 -30.3°
Maximum altitude 19:25:51 17° 143° (SE) 4,143 - -30.4°
Drops below altitude 10° 19:32:29 10° 109° (ESE) 4,305 - -31.5°
Sets 19:37:07 0° 91° (E) 4,959 - -32.2°
